Regional Weather Roundup
Issued by NWS Midland/Odessa, TX

Skip options and go directly to product.
Home | Oldest Version | Previous Version | Current Version | All | Text Only | Save Text | Print | Product List | Glossary Off

Skip product version selection by date and time.   

762
ASUS44 KMAF 021410
RWRMAF
MIDLAND AREA WEATHER ROUNDUP
NATIONAL WEATHER SERVICE MIDLAND TX
900 AM CDT TUE SEP 02 2014

...IN SOUTHWEST TEXAS AND SOUTHEAST NEW MEXICO...

CITY           SKY/WX    TMP DP  RH WIND       PRES   REMARKS
ALPINE         SUNNY     77  59  52 SW6       30.13S
ANDREWS        FAIR      77  63  60 S14G22    29.98S
ARTESIA        NOT AVBL
BIG SPRING     SUNNY     79  68  69 SE18G24   29.99R
CARLSBAD       SUNNY     77  59  53 S3        29.96R
DRYDEN           N/A     82  71  69 SE12      29.96R
FORT STOCKTON  SUNNY     78  61  55 S12       29.98R
GUAD PASS      SUNNY     73  38  27 SW10      30.14S
HOBBS          SUNNY     75  57  53 S13       30.01R
MARFA          SUNNY     72  57  60 CALM      30.14S
MIDLAND AIRPK  SUNNY     79  67  65 S14G20    29.97S
MIDLAND INTL   SUNNY     79  67  66 S20       29.96S
ODESSA         SUNNY     79  65  62 S13       29.98R
PECOS          SUNNY     76  53  44 CALM      29.93S
PRESIDIO       NOT AVBL
SEMINOLE       SUNNY     78  60  54 S14G21    30.00R
SNYDER         SUNNY     77  68  74 S15G22    29.96S
WINK           SUNNY     79  61  53 SE15      29.94R
$$
...OTHER STATIONS IN TEXAS...

CITY           SKY/WX    TMP DP  RH WIND       PRES   REMARKS
ABILENE        SUNNY     80  69  69 S14G23    29.96R
AMARILLO       CLOUDY    69  65  86 N13       30.04R
AUSTIN         PTSUNNY   82  76  81 S10       29.96R
BROWNSVILLE    SUNNY     85  78  80 E8        29.89R
CORPUS CHRISTI MOSUNNY   85  77  77 SE12      29.92R
DALLAS FTW     PTSUNNY   82  73  74 S15       29.96R
DEL RIO        CLOUDY    80  72  76 SE13      29.92S
EL PASO        MOSUNNY   75  47  36 CALM      30.01R
HOUSTON INT    MOSUNNY   84  77  79 S10       29.97R
LUBBOCK        SUNNY     77  60  55 S12       29.98R
SAN ANGELO     CLOUDY    78  69  73 S14G25    29.97S
SAN ANTONIO    MOSUNNY   82  75  79 S7        29.97R
WACO           PTSUNNY   81  74  79 S14       29.96R
WICHITA FALLS  NOT AVBL
$$
...OTHER LOCATIONS IN NEW MEXICO...

CITY           SKY/WX    TMP DP  RH WIND       PRES   REMARKS
ALAMAGORDO     SUNNY     68  41  37 E5        30.05R
ALBUQUERQUE    SUNNY     70  38  31 N7        30.16R
CANNON AFB     SUNNY     67  56  68 N13       30.06R
CLOVIS           N/A     66  57  72 N13       30.08S
HOLLOMAN AFB   SUNNY     69  37  31 NE2       30.03R
ROSWELL        SUNNY     71  44  37 CALM      30.00R
RUIDOSO        SUNNY     72  36  26 W7        30.27R
SANTA FE       SUNNY     62  32  32 N5        30.22R
TRUTH OR CONSE SUNNY     73  36  25 N7        30.09R
TUCUMCARI      CLOUDY    70  63  78 NE9       30.07R
$$

USA.gov is the U.S. government's official web portal to all federal, state and local government web resources and services.